Location: Krasnoyarskiy Pitomnik
(51.1333°N, 71.6167°E)
Time: 19:52:28
(UTC+00:00)

Vanguard 2 - Pass Details

Date: 30 April 2024
Orbit: 553 x 2914 km, 32.9° (Epoch: 22 May)

Event Time Altitude Azimuth Distance (km) Brightness Sun altitude
Exits shadow 21:35:39 15° 244° (WSW) 4,385 10.8 -16.6°
Maximum altitude 21:45:50 34° 191° (S) 3,761 10.5 -15.6°
Drops below altitude 10° 22:00:24 10° 136° (SE) 5,734 11.9 -14.1°
Sets 22:05:28 0° 128° (SE) 6,709 12.4 -13.6°
